Rakoskert, Hungary

11:03 AM CET on February 20, 2017 (GMT +0100)
Ferihegy

Weather History for LHBP - January, 2013

Change the Weather History Date:

Friday, January 4, 2013

  Actual Average Record
Temperature  
Mean Temperature 46 °F -  
Max Temperature 50 °F 36 °F 51 °F (1998)
Min Temperature 41 °F 22 °F 5 °F (2002)
Degree Days  
Heating Degree Days 20    
Moisture  
Dew Point 38 °F    
Average Humidity 78    
Maximum Humidity 93    
Minimum Humidity 58    
Precipitation  
Precipitation 0.00 in - - ()
Sea Level Pressure  
Sea Level Pressure 30.21 in    
Wind  
Wind Speed 14 mph ()    
Max Wind Speed 26 mph    
Max Gust Speed 40 mph    
Visibility 6.2 miles    
Events Rain    
Averages and records for this station are not official NWS values.
T = Trace of Precipitation, MM = Missing Value Source: Averaged Metar Reports

Daily Weather History Graph

Daily Weather History Graph

Search for Another Location

Airport or City:

Trip Planner

Search our weather history database for the weather conditions in past years. The results will help you decide how hot, cold, wet, or windy it might be!

Date:

Astronomy

Jan. 04, 2013 Rise Set
Actual Time 7:30 AM CET 4:05 PM CET
Civil Twilight 6:54 AM CET 4:41 PM CET
Nautical Twilight 6:15 AM CET 5:20 PM CET
Astronomical Twilight 5:38 AM CET 5:57 PM CET
Moon No Moon Rise 10:32 AM CET (1/4)
Length of Visible Light 9h 46m
Length of Day
8h 35m
Waning Gibbous, 58% of the Moon is Illuminated
Jan 4
Waning Gibbous
Jan 5
Last Quarter
Jan 11
New
Jan 19
First Quarter
Jan 27
Full

Hourly Weather History & Observations

Time (CET) Temp. Windchill Dew Point Humidity Pressure Visibility Wind Dir Wind Speed Gust Speed Precip Events Conditions
12:00 AM 41.0 °F 33.5 °F 39.2 °F 93% 30.30 in 6.2 mi WSW 13.8 mph - N/A   Overcast
12:30 AM 41.0 °F 32.8 °F 39.2 °F 93% 30.30 in 6.2 mi SW 16.1 mph - N/A   Overcast
1:00 AM 41.0 °F 33.9 °F 37.4 °F 87% 30.30 in 6.2 mi WSW 12.7 mph - N/A   Overcast
1:30 AM 41.0 °F 33.5 °F 39.2 °F 93% 30.27 in 6.2 mi SW 13.8 mph - N/A   Overcast
2:00 AM 41.0 °F 33.5 °F 39.2 °F 93% 30.27 in 6.2 mi WSW 13.8 mph - N/A   Mostly Cloudy
2:30 AM 41.0 °F 36.4 °F 39.2 °F 93% 30.27 in 6.2 mi WSW 6.9 mph - N/A   Mostly Cloudy
3:00 AM 42.8 °F 37.0 °F 39.2 °F 87% 30.27 in 6.2 mi WSW 10.4 mph - N/A   Mostly Cloudy
3:30 AM 42.8 °F 37.0 °F 39.2 °F 87% 30.24 in 6.2 mi WSW 10.4 mph - N/A   Mostly Cloudy
4:00 AM 42.8 °F 37.0 °F 39.2 °F 87% 30.24 in 6.2 mi WSW 10.4 mph - N/A   Mostly Cloudy
4:30 AM 42.8 °F 38.0 °F 39.2 °F 87% 30.24 in 6.2 mi West 8.1 mph - N/A   Mostly Cloudy
5:00 AM 42.8 °F 36.6 °F 41.0 °F 93% 30.24 in 6.2 mi West 11.5 mph - N/A   Mostly Cloudy
5:30 AM 42.8 °F 35.4 °F 39.2 °F 87% 30.24 in 6.2 mi West 15.0 mph - N/A   Mostly Cloudy
6:00 AM 44.6 °F 35.5 °F 41.0 °F 87% 30.24 in 6.2 mi WNW 25.3 mph - N/A   Scattered Clouds
6:30 AM 42.8 °F 33.5 °F 41.0 °F 93% 30.24 in 6.2 mi WNW 23.0 mph - N/A   Scattered Clouds
7:00 AM 42.8 °F 35.1 °F 39.2 °F 87% 30.24 in 6.2 mi West 16.1 mph - N/A   Scattered Clouds
7:30 AM 42.8 °F 34.8 °F 39.2 °F 87% 30.24 in 6.2 mi West 17.3 mph - N/A   Mostly Cloudy
8:00 AM 42.8 °F 34.0 °F 41.0 °F 93% 30.24 in 6.2 mi West 20.7 mph - N/A   Scattered Clouds
8:30 AM 42.8 °F 35.1 °F 41.0 °F 93% 30.24 in 6.2 mi West 16.1 mph - N/A   Mostly Cloudy
9:00 AM 44.6 °F 35.3 °F 39.2 °F 81% 30.24 in 6.2 mi WNW 26.5 mph - N/A   Mostly Cloudy
9:30 AM 44.6 °F 35.7 °F 37.4 °F 76% 30.27 in 6.2 mi WNW 24.2 mph - N/A   Mostly Cloudy
10:00 AM 44.6 °F 36.1 °F 37.4 °F 76% 30.27 in 6.2 mi WNW 21.9 mph - N/A   Mostly Cloudy
10:30 AM 46.4 °F 39.0 °F 37.4 °F 71% 30.27 in 6.2 mi West 19.6 mph - N/A   Mostly Cloudy
11:00 AM 46.4 °F 38.5 °F 37.4 °F 71% 30.24 in 6.2 mi WNW 21.9 mph - N/A   Scattered Clouds
11:30 AM 46.4 °F 38.1 °F 39.2 °F 76% 30.24 in 6.2 mi West 24.2 mph 35.7 mph N/A   Partly Cloudy
12:00 PM 48.2 °F - 39.2 °F 71% 30.24 in 6.2 mi West 23.0 mph - N/A   Scattered Clouds
12:30 PM 48.2 °F - 37.4 °F 66% 30.21 in 6.2 mi WNW 23.0 mph - N/A   Scattered Clouds
1:00 PM 50.0 °F - 35.6 °F 58% 30.21 in 6.2 mi WNW 24.2 mph 40.3 mph N/A   Mostly Cloudy
1:30 PM 50.0 °F - 35.6 °F 58% 30.21 in 6.2 mi WNW 21.9 mph - N/A   Scattered Clouds
2:00 PM 48.2 °F - 35.6 °F 62% 30.21 in 6.2 mi WNW 18.4 mph - N/A   Scattered Clouds
2:30 PM 48.2 °F - 35.6 °F 62% 30.21 in 6.2 mi NW 15.0 mph - N/A   Mostly Cloudy
3:00 PM 48.2 °F - 33.8 °F 58% 30.21 in 6.2 mi NW 15.0 mph - N/A   Mostly Cloudy
3:30 PM 48.2 °F - 33.8 °F 58% 30.21 in 6.2 mi WNW 15.0 mph - N/A   Mostly Cloudy
4:00 PM 48.2 °F - 33.8 °F 58% 30.21 in 6.2 mi WNW 13.8 mph - N/A   Mostly Cloudy
4:30 PM 46.4 °F 40.4 °F 35.6 °F 66% 30.21 in 6.2 mi West 13.8 mph - N/A   Mostly Cloudy
5:00 PM 46.4 °F 39.2 °F 37.4 °F 71% 30.21 in 6.2 mi West 18.4 mph - N/A   Mostly Cloudy
5:30 PM 44.6 °F 37.8 °F 37.4 °F 76% 30.18 in 6.2 mi WNW 15.0 mph - N/A   Scattered Clouds
6:00 PM 44.6 °F 38.4 °F 37.4 °F 76% 30.18 in 6.2 mi West 12.7 mph - N/A   Partly Cloudy
6:30 PM 44.6 °F 38.4 °F 37.4 °F 76% 30.18 in 6.2 mi West 12.7 mph - N/A   Scattered Clouds
7:00 PM 44.6 °F 39.2 °F 37.4 °F 76% 30.18 in - West 10.4 mph - N/A   Clear
7:30 PM 46.4 °F 40.4 °F 37.4 °F 71% 30.18 in - WNW 13.8 mph - N/A   Clear
8:00 PM 46.4 °F 40.1 °F 37.4 °F 71% 30.15 in - West 15.0 mph - N/A   Clear
8:30 PM 44.6 °F 38.8 °F 37.4 °F 76% 30.15 in - West 11.5 mph - N/A   Clear
9:00 PM 44.6 °F 39.2 °F 39.2 °F 81% 30.15 in - West 10.4 mph - N/A   Clear
9:30 PM 46.4 °F 40.7 °F 39.2 °F 76% 30.12 in - West 12.7 mph - N/A   Clear
10:00 PM 46.4 °F 40.7 °F 39.2 °F 76% 30.12 in 6.2 mi West 12.7 mph - N/A   Mostly Cloudy
10:30 PM 46.4 °F 40.7 °F 39.2 °F 76% 30.09 in 6.2 mi West 12.7 mph - N/A   Mostly Cloudy
11:00 PM 44.6 °F 39.2 °F 39.2 °F 81% 30.09 in 6.2 mi West 10.4 mph - N/A Rain Light Rain
11:30 PM 44.6 °F 40.2 °F 41.0 °F 87% 30.06 in 6.2 mi West 8.1 mph - N/A   Mostly Cloudy